This demonstration page uses our WeatherBlox Daily Observations layout. Learn more.

Left ArrowRight Arrow

40.92945, -100.16068

Hourly Observations for February 2, 2020

Temp ( °F °C ) Dew Point ( °F °C ) Humidity (%) Winds ( mph kmh ) Pressure ( in mb ) Visibility ( mi km ) Precip ( " mm )
12:15 am 00:15 Clear 41 5 30 -1 66 66 W 9 15 29.90 1012 10 16 N/A
12:35 am 00:35 Clear 38 3.5 30 -1.3 71 71 WNW 6 9 29.91 1013 10 16 N/A
12:55 am 00:55 Clear 38 3.2 29 -1.5 72 72 WNW 7 11 29.91 1013 10 16 N/A
1:15 am 01:15 Clear 36 2 30 -1.3 79 79 NW 7 11 29.92 1013 10 16 N/A
1:35 am 01:35 Clear 35 1.7 30 -1.3 81 81 NW 7 11 29.91 1013 10 16 N/A
1:55 am 01:55 Clear 35 1.5 30 -1.2 82 82 NW 7 11 29.91 1013 10 16 N/A
2:15 am 02:15 Clear 36 2.4 30 -1 79 79 W 6 9 29.90 1013 10 16 N/A
2:35 am 02:35 Clear 37 2.7 30 -1.1 76 76 WNW 8 13 29.90 1013 10 16 N/A
2:55 am 02:55 Clear 36 2 30 -1 81 81 WNW 9 15 29.92 1013 10 16 N/A
3:15 am 03:15 Clear 38 3.5 30 -1.2 72 72 NW 7 11 29.90 1013 10 16 N/A
3:35 am 03:35 Clear 37 2.5 30 -1.3 76 76 WNW 7 11 29.90 1013 10 16 N/A
3:55 am 03:55 Clear 37 2.6 29 -1.5 75 75 W 8 13 29.91 1013 10 16 N/A
4:15 am 04:15 Clear 37 2.7 29 -1.5 74 74 W 10 17 29.90 1013 10 16 N/A
4:35 am 04:35 Clear 37 3 29 -1.6 72 72 WNW 6 9 29.89 1012 10 16 N/A
4:55 am 04:55 Clear 38 3.2 28 -2 69 69 WNW 8 13 29.89 1012 10 16 N/A
5:15 am 05:15 Clear 35 1.7 28 -2 77 77 W 10 17 29.91 1013 10 16 N/A
5:35 am 05:35 Clear 37 2.7 28 -2 71 71 W 8 13 29.90 1013 10 16 N/A
5:55 am 05:55 Clear 39 3.7 28 -2.3 65 65 WNW 12 19 29.88 1012 10 16 N/A
6:15 am 06:15 Clear 38 3.6 28 -2.3 66 66 WNW 8 13 29.87 1012 10 16 N/A
6:35 am 06:35 Clear 33 0.6 28 -2.2 82 82 NW 6 9 29.91 1013 10 16 N/A
6:55 am 06:55 Clear 33 0.6 28 -2.3 81 81 NW 10 17 29.91 1013 10 16 N/A
7:15 am 07:15 Clear 36 2 28 -2.3 73 73 NW 10 17 29.90 1012 10 16 N/A
7:35 am 07:35 Clear 34 1 27 -2.7 77 77 NW 6 9 29.91 1013 10 16 N/A
7:55 am 07:55 Sunny 32 0.2 28 -2.3 84 84 WSW 3 6 29.92 1013 10 16 N/A
8:15 am 08:15 Sunny 35 1.5 27 -2.6 74 74 WNW 3 6 29.91 1013 10 16 N/A
8:35 am 08:35 Sunny 36 2.2 29 -1.7 76 76 NW 6 9 29.90 1013 10 16 N/A
8:55 am 08:55 Sunny 38 3.3 30 -1.2 73 73 W 3 6 29.89 1012 10 16 N/A
9:15 am 09:15 Sunny 41 4.9 31 -0.7 67 67 WNW 3 6 29.88 1012 10 16 N/A
9:35 am 09:35 Sunny 43 6.3 31 -0.7 61 61 W 3 6 29.86 1011 10 16 N/A
9:55 am 09:55 Sunny 46 7.5 29 -1.5 53 53 WNW 6 9 29.83 1010 10 16 N/A
10:15 am 10:15 Sunny 48 8.7 29 -1.8 48 48 WNW 6 9 29.82 1010 10 16 N/A
10:35 am 10:35 Sunny 50 9.8 28 -2.2 43 43 N N/A 29.80 1009 10 16 N/A
10:55 am 10:55 Sunny 51 10.3 30 -1.1 45 45 NNE 5 7 29.80 1009 10 16 N/A
11:15 am 11:15 Sunny 52 11.1 32 -0.1 46 46 NE 8 13 29.80 1009 10 16 N/A
11:35 am 11:35 Sunny 55 12.9 33 0.5 43 43 N N/A 29.78 1009 10 16 N/A
11:55 am 11:55 Sunny 59 15.2 30 -1 33 33 E 3 6 29.74 1007 10 16 N/A
12:15 pm 12:15 Sunny 60 15.6 31 -0.6 33 33 N N/A 29.73 1007 10 16 N/A
12:35 pm 12:35 Sunny 62 16.4 31 -0.4 32 32 ESE 5 7 29.71 1006 10 16 N/A
12:55 pm 12:55 Sunny 62 16.5 32 0.2 33 33 E 6 9 29.69 1006 10 16 N/A
1:15 pm 13:15 Sunny 62 16.8 32 undefined 32 32 SE 6 9 29.68 1005 10 16 N/A
1:35 pm 13:35 Sunny 62 16.8 31 -0.3 31 31 ESE 5 7 29.67 1005 10 16 N/A
1:55 pm 13:55 Sunny 64 17.5 32 0.1 31 31 E 6 9 29.64 1004 10 16 N/A
2:15 pm 14:15 Sunny 64 18 31 -0.3 29 29 SE 8 13 29.63 1003 10 16 N/A
2:35 pm 14:35 Sunny 64 17.8 34 1.3 33 33 E 8 13 29.62 1003 10 16 N/A
2:55 pm 14:55 Sunny 64 17.5 33 0.8 33 33 ESE 12 19 29.63 1004 10 16 N/A
3:15 pm 15:15 Sunny 63 17.1 38 3.5 41 41 SSE 13 20 29.63 1003 10 16 N/A
3:35 pm 15:35 Sunny 63 17 35 1.6 36 36 SE 13 20 29.63 1003 10 16 N/A
3:55 pm 15:55 Sunny 62 16.8 36 2.4 38 38 SE 12 19 29.62 1003 10 16 N/A
4:15 pm 16:15 Sunny 62 16.7 34 1.1 35 35 ESE 10 17 29.61 1003 10 16 N/A
4:35 pm 16:35 Sunny 62 16.4 36 2 38 38 E 12 19 29.61 1003 10 16 N/A
4:55 pm 16:55 Sunny 60 15.5 36 2.3 41 41 E 12 19 29.62 1003 10 16 N/A
5:15 pm 17:15 Sunny 58 14.6 36 2.3 44 44 E 12 19 29.62 1003 10 16 N/A
5:35 pm 17:35 Sunny 55 12.7 37 3 52 52 E 9 15 29.64 1004 10 16 N/A
5:55 pm 17:55 Sunny 51 10.6 38 3.1 60 60 ENE 10 17 29.66 1004 10 16 N/A
6:15 pm 18:15 Clear 49 9.2 37 2.5 63 63 ENE 10 17 29.67 1005 10 16 N/A
6:35 pm 18:35 Clear 49 9.2 35 1.8 60 60 NE 16 26 29.68 1005 10 16 N/A
6:55 pm 18:55 Clear 47 8.6 35 1.5 61 61 NE 16 26 29.68 1005 10 16 N/A
7:15 pm 19:15 Clear 45 7.4 35 1.4 66 66 NE 16 26 29.70 1006 10 16 N/A
7:35 pm 19:35 Clear 43 6.3 34 1 69 69 NE 16 26 29.70 1006 10 16 N/A
7:55 pm 19:55 Clear 42 5.4 34 1 74 74 NE 21 33 29.70 1006 10 16 N/A
8:15 pm 20:15 Clear 40 4.7 34 0.9 77 77 NE 20 31 29.71 1006 10 16 N/A
8:35 pm 20:35 Clear 40 4.2 34 1 80 80 NE 18 30 29.72 1006 10 16 N/A
8:55 pm 20:55 Clear 39 3.8 33 0.8 81 81 NE 16 26 29.72 1006 10 16 N/A
9:15 pm 21:15 Clear 38 3.4 33 0.7 83 83 NE 15 24 29.73 1007 10 16 N/A
9:35 pm 21:35 Clear 38 3.1 33 0.7 84 84 ENE 16 26 29.74 1007 10 16 N/A
9:55 pm 21:55 Clear 37 2.6 33 0.6 87 87 ENE 15 24 29.75 1007 10 16 N/A
10:15 pm 22:15 Clear 36 2.3 33 0.5 88 88 ENE 15 24 29.74 1007 10 16 N/A
10:35 pm 22:35 Clear 36 2.3 33 0.3 87 87 ENE 16 26 29.74 1007 10 16 N/A
10:55 pm 22:55 Clear 36 2 32 0.2 88 88 ENE 21 33 29.75 1007 10 16 N/A
11:15 pm 23:15 Clear 35 1.7 32 undefined 89 89 ENE 18 30 29.74 1007 10 16 N/A
11:35 pm 23:35 Clear 35 1.5 32 undefined 90 90 NE 17 28 29.74 1007 10 16 N/A
11:55 pm 23:55 Partly Cloudy 34 1 32 -0.2 92 92 NE 21 33 29.76 1008 10 16 N/A

Powered by AerisWeather